Location: Newark
(37.9800°N, 91.3000°W)
Time: 18:47:59
(UTC+00:00)

N. Korean satellite - Visible Passes

Search period start: 21 October 2019 00:00
Search period end: 31 October 2019 00:00
Orbit: 455 x 508 km, 97.2° (Epoch: 20 October)

Date Brightness Start Highest point End Pass type
(mag) Time Alt. Az. Time Alt. Az. Time Alt. Az.
22 Oct 7.1 11:50:53 10° NNE 11:54:31 67° E 11:58:10 10° S visible
22 Oct 9.5 23:58:44 10° SSW 00:01:25 21° W 00:04:07 10° NW visible
23 Oct 8.9 11:25:56 10° NE 11:29:10 29° E 11:32:26 10° SSE visible
24 Oct 10.2 11:01:40 10° ENE 11:03:44 14° E 11:05:48 10° SE visible
26 Oct 10.2 00:17:22 10° WSW 00:18:57 13° W 00:20:33 10° WNW visible
26 Oct 7.7 11:43:04 10° NNE 11:46:40 52° E 11:50:16 10° S visible
26 Oct 9.0 23:50:31 10° SSW 23:53:29 27° W 23:56:29 10° NW visible
27 Oct 9.3 11:18:15 10° NE 11:21:17 24° E 11:24:19 10° SSE visible
28 Oct 10.4 10:54:28 10° ENE 10:55:49 12° E 10:57:09 10° ESE visible
29 Oct 6.6 12:00:24 10° N 12:04:06 88° WNW 12:07:48 10° SSW visible
30 Oct 9.9 00:08:45 10° SW 00:10:58 16° W 00:13:13 10° NW visible
30 Oct 8.2 11:35:15 10° NNE 11:38:46 40° E 11:42:17 10° S visible
30 Oct 8.5 23:42:20 10° SSW 23:45:30 34° W 23:48:45 10° NNW visible
